Weather History for Pittsfield, IL

Change the Weather History Date:

Sunday, October 7, 2012

  Actual Average (KUIN) Record (KUIN)
Temperature  
Mean Temperature 44 °F 58 °F  
Max Temperature 52 °F 68 °F 96 °F (1939)
Min Temperature 35 °F 47 °F 22 °F (1952)
Degree Days  
Heating Degree Days 22 8  
Month to date heating degree days 52  
Since 1 July heating degree days 139  
Cooling Degree Days 0 1  
Month to date cooling degree days 8  
Year to date cooling degree days 1084  
Moisture  
Dew Point 30 °F    
Average Humidity 62    
Maximum Humidity 87    
Minimum Humidity 33    
Precipitation  
Precipitation 0.00 in 0.10 in 2.36 in (1930)
Month to date precipitation 0.72  
Year to date precipitation 29.77  
Sea Level Pressure  
Sea Level Pressure 30.23 in    
Wind  
Wind Speed 4 mph (WNW)    
Max Wind Speed 12 mph    
Max Gust Speed 16 mph    
Visibility 10 miles    
Events      
T = Trace of Precipitation, MM = Missing Value Source: NWS Daily Summary

Daily Weather History Graph

Daily Weather History Graph

Search for Another Location

Airport:

Trip Planner

Search our weather history database for the weather conditions in past years. The results will help you decide how hot, cold, wet, or windy it might be!

Date:

Astronomy

Oct. 07, 2012 Rise Set
Actual Time 7:05 AM CDT 6:35 PM CDT
Civil Twilight 6:38 AM CDT 7:02 PM CDT
Nautical Twilight 6:07 AM CDT 7:33 PM CDT
Astronomical Twilight 5:36 AM CDT 8:04 PM CDT
Moon 11:47 PM CDT (10/7) 1:42 PM CDT (10/7)
Length of Visible Light 12h 23m
Length of Day
11h 29m
Waning Gibbous, 56% of the Moon is Illuminated
Oct 7
Waning Gibbous
Oct 8
Last Quarter
Oct 15
New
Oct 21
First Quarter
Oct 29
Full

Hourly Weather History & Observations

Time (CDT) Temp. Windchill Dew Point Humidity Pressure Visibility Wind Dir Wind Speed Gust Speed Precip Events Conditions
12:15 AM 41.2 °F 39.2 °F 33.8 °F 75% 30.25 in 10.0 mi WNW 3.5 mph - N/A   Scattered Clouds
12:35 AM 41.2 °F 39.2 °F 33.8 °F 75% 30.26 in 10.0 mi West 3.5 mph - N/A   Mostly Cloudy
12:55 AM 40.5 °F 38.4 °F 34.0 °F 78% 30.25 in 10.0 mi WNW 3.5 mph - N/A   Scattered Clouds
1:15 AM 41.0 °F 39.0 °F 32.9 °F 73% 30.25 in 10.0 mi WNW 3.5 mph - N/A   Clear
1:35 AM 40.5 °F 38.4 °F 33.1 °F 75% 30.25 in 10.0 mi WNW 3.5 mph - N/A   Clear
1:55 AM 40.6 °F 38.6 °F 32.7 °F 73% 30.25 in 10.0 mi WNW 3.5 mph - N/A   Clear
2:15 AM 40.3 °F - 32.4 °F 73% 30.25 in 10.0 mi Calm Calm - N/A   Scattered Clouds
2:35 AM 40.1 °F - 32.0 °F 73% 30.25 in 10.0 mi Calm Calm - N/A   Clear
2:55 AM 40.1 °F - 32.0 °F 73% 30.25 in 10.0 mi Calm Calm - N/A   Clear
3:15 AM 39.4 °F 37.2 °F 32.2 °F 75% 30.25 in 10.0 mi West 3.5 mph - N/A   Clear
3:35 AM 39.7 °F 36.5 °F 32.0 °F 74% 30.25 in 10.0 mi WNW 4.6 mph - N/A   Scattered Clouds
3:55 AM 40.1 °F 38.0 °F 32.0 °F 73% 30.25 in 10.0 mi West 3.5 mph - N/A   Clear
4:15 AM 39.9 °F 37.8 °F 32.2 °F 74% 30.25 in 10.0 mi West 3.5 mph - N/A   Mostly Cloudy
4:35 AM 39.7 °F 36.5 °F 32.2 °F 74% 30.25 in 10.0 mi WNW 4.6 mph - N/A   Overcast
4:55 AM 39.7 °F 37.6 °F 32.2 °F 74% 30.24 in 10.0 mi West 3.5 mph - N/A   Overcast
5:15 AM 39.2 °F - 32.0 °F 75% 30.25 in 10.0 mi Calm Calm - N/A   Scattered Clouds
5:35 AM 38.3 °F 35.9 °F 32.0 °F 78% 30.25 in 10.0 mi West 3.5 mph - N/A   Clear
5:55 AM 37.6 °F 35.1 °F 32.0 °F 80% 30.25 in 10.0 mi West 3.5 mph - N/A   Clear
6:15 AM 37.4 °F 34.9 °F 32.0 °F 81% 30.25 in 10.0 mi West 3.5 mph - N/A   Clear
6:35 AM 36.9 °F - 32.0 °F 83% 30.25 in 10.0 mi Calm Calm - N/A   Clear
6:55 AM 36.1 °F - 31.8 °F 84% 30.25 in 10.0 mi Calm Calm - N/A   Clear
7:15 AM 35.1 °F 31.0 °F 31.5 °F 87% 30.25 in 10.0 mi WNW 4.6 mph - N/A   Clear
7:35 AM 35.2 °F 31.2 °F 31.8 °F 87% 30.26 in 10.0 mi WNW 4.6 mph - N/A   Clear
7:55 AM 36.3 °F 33.7 °F 32.0 °F 84% 30.26 in 10.0 mi WNW 3.5 mph - N/A   Clear
8:15 AM 37.6 °F 34.0 °F 32.2 °F 81% 30.26 in 10.0 mi WNW 4.6 mph - N/A   Clear
8:35 AM 39.0 °F 34.8 °F 32.2 °F 76% 30.27 in 10.0 mi WNW 5.8 mph - N/A   Clear
8:55 AM 40.5 °F 37.3 °F 32.0 °F 72% 30.27 in 10.0 mi WNW 4.6 mph - N/A   Clear
9:15 AM 42.1 °F 38.4 °F 31.8 °F 67% 30.28 in 10.0 mi WNW 5.8 mph - N/A   Clear
9:35 AM 42.8 °F 39.3 °F 30.4 °F 62% 30.29 in 10.0 mi WNW 5.8 mph - N/A   Clear
9:55 AM 44.2 °F 39.2 °F 29.8 °F 57% 30.28 in 10.0 mi WNW 9.2 mph - N/A   Clear
10:15 AM 45.1 °F 39.9 °F 28.0 °F 51% 30.28 in 10.0 mi NW 10.4 mph - N/A   Clear
10:35 AM 45.5 °F 41.3 °F 26.2 °F 47% 30.29 in 10.0 mi WNW 8.1 mph - N/A   Scattered Clouds
10:55 AM 45.1 °F 40.8 °F 26.4 °F 48% 30.29 in 10.0 mi NW 8.1 mph - N/A   Scattered Clouds
11:15 AM 46.2 °F 43.3 °F 27.3 °F 48% 30.29 in 10.0 mi West 5.8 mph - N/A   Scattered Clouds
11:35 AM 46.6 °F - 27.7 °F 48% 30.29 in 10.0 mi WNW 6.9 mph - N/A   Mostly Cloudy
11:55 AM 47.3 °F - 28.4 °F 48% 30.28 in 10.0 mi NW 6.9 mph - N/A   Scattered Clouds
12:15 PM 46.9 °F - 26.6 °F 45% 30.28 in 10.0 mi West 5.8 mph - N/A   Scattered Clouds
12:35 PM 47.8 °F - 26.2 °F 43% 30.27 in 10.0 mi West 6.9 mph - N/A   Scattered Clouds
12:55 PM 48.4 °F - 26.8 °F 43% 30.26 in 10.0 mi WNW 3.5 mph - N/A   Clear
1:15 PM 49.3 °F - 27.1 °F 42% 30.25 in 10.0 mi NNW 6.9 mph - N/A   Clear
1:35 PM 49.5 °F - 25.2 °F 39% 30.25 in 10.0 mi WNW 8.1 mph - N/A   Clear
1:55 PM 51.3 °F - 27.1 °F 39% 30.24 in 10.0 mi WNW 10.4 mph 16.1 mph N/A   Clear
2:15 PM 50.0 °F - 24.8 °F 37% 30.23 in 10.0 mi WNW 11.5 mph - N/A   Clear
2:35 PM 50.4 °F - 25.0 °F 37% 30.21 in 10.0 mi NW 9.2 mph - N/A   Clear
2:55 PM 51.3 °F - 24.6 °F 35% 30.21 in 10.0 mi WNW 5.8 mph - N/A   Clear
3:15 PM 51.8 °F - 25.0 °F 35% 30.20 in 10.0 mi West 6.9 mph - N/A   Clear
3:35 PM 51.6 °F - 25.0 °F 36% 30.20 in 10.0 mi SW 5.8 mph - N/A   Clear
3:55 PM 51.8 °F - 23.7 °F 33% 30.19 in 10.0 mi WNW 9.2 mph - N/A   Clear
4:15 PM 51.8 °F - 23.5 °F 33% 30.19 in 10.0 mi NW 8.1 mph - N/A   Clear
4:35 PM 52.0 °F - 23.5 °F 33% 30.18 in 10.0 mi WSW 8.1 mph - N/A   Clear
4:55 PM 52.0 °F - 24.1 °F 34% 30.18 in 10.0 mi WSW 4.6 mph - N/A   Clear
5:15 PM 52.2 °F - 24.3 °F 34% 30.18 in 10.0 mi WNW 6.9 mph - N/A   Clear
5:35 PM 51.8 °F - 24.4 °F 34% 30.18 in 10.0 mi WSW 4.6 mph - N/A   Clear
5:55 PM 51.8 °F - 23.9 °F 34% 30.18 in 10.0 mi West 3.5 mph - N/A   Clear
6:15 PM 50.9 °F - 24.4 °F 36% 30.18 in 10.0 mi Calm Calm - N/A   Clear
6:35 PM 49.1 °F - 25.9 °F 40% 30.17 in 10.0 mi Calm Calm - N/A   Clear
6:55 PM 45.5 °F - 30.6 °F 56% 30.17 in 10.0 mi Calm Calm - N/A   Clear
7:15 PM 43.9 °F - 30.0 °F 58% 30.18 in 10.0 mi Calm Calm - N/A   Clear
7:35 PM 43.0 °F - 31.8 °F 65% 30.18 in 10.0 mi Calm Calm - N/A   Clear
7:55 PM 41.9 °F - 31.1 °F 66% 30.18 in 10.0 mi Calm Calm - N/A   Clear
8:15 PM 41.4 °F - 31.8 °F 69% 30.19 in 10.0 mi Calm Calm - N/A   Clear
8:35 PM 39.4 °F - 32.9 °F 78% 30.19 in 10.0 mi Calm Calm - N/A   Clear
8:55 PM 38.3 °F - 32.7 °F 80% 30.19 in 10.0 mi Calm Calm - N/A   Clear
9:15 PM 37.4 °F - 32.9 °F 84% 30.20 in 10.0 mi Calm Calm - N/A   Clear
9:35 PM 37.8 °F - 32.9 °F 83% 30.19 in 7.0 mi Calm Calm - N/A   Clear
9:55 PM 39.2 °F - 30.9 °F 72% 30.19 in 10.0 mi Calm Calm - N/A   Clear
10:15 PM 36.7 °F 34.1 °F 32.0 °F 83% 30.19 in 7.0 mi South 3.5 mph - N/A   Clear
10:35 PM 38.5 °F - 31.5 °F 76% 30.18 in 10.0 mi Calm Calm - N/A   Clear
10:55 PM 38.1 °F - 31.5 °F 77% 30.19 in 10.0 mi Calm Calm - N/A   Clear
11:15 PM 37.9 °F - 32.0 °F 79% 30.18 in 10.0 mi Calm Calm - N/A   Clear
11:35 PM 36.7 °F - 32.0 °F 83% 30.18 in 10.0 mi Calm Calm - N/A   Clear
11:55 PM 37.0 °F 34.5 °F 31.1 °F 79% 30.18 in 10.0 mi South 3.5 mph - N/A   Clear